Change the Weather History Date:

Saturday, October 12, 2013

  Actual Average (KSHV) Record (KSHV)
Temperature  
Mean Temperature 76 °F 68 °F  
Max Temperature 82 °F 80 °F 93 °F (1963)
Min Temperature 69 °F 56 °F 39 °F (1977)
Degree Days  
Heating Degree Days 0 2  
Month to date heating degree days 15  
Since 1 July heating degree days 21  
Cooling Degree Days 10 4  
Month to date cooling degree days 69  
Year to date cooling degree days 2394  
Growing Degree Days 26 (Base 50)    
Moisture  
Dew Point 70 °F    
Average Humidity 88    
Maximum Humidity 100    
Minimum Humidity 71    
Precipitation  
Precipitation 0.58 in 0.15 in 1.90 in (1986)
Month to date precipitation 1.69  
Year to date precipitation 38.84  
Snow  
Snow 0.00 in - - ()
Month to date snowfall  
Since 1 July snowfall  
Since 1 September snowfall  
Snow Depth -    
Sea Level Pressure  
Sea Level Pressure 30.01 in    
Wind  
Wind Speed 5 mph (SE)    
Max Wind Speed 13 mph    
Max Gust Speed 18 mph    
Visibility 8 miles    
Events Rain , Thunderstorm    
T = Trace of Precipitation, MM = Missing Value Source: NWS Daily Summary

Daily Weather History Graph

Daily Weather History Graph

Search for Another Location

Airport or City:

Trip Planner

Search our weather history database for the weather conditions in past years. The results will help you decide how hot, cold, wet, or windy it might be!

Date:

Astronomy

Oct. 12, 2013 Rise Set
Actual Time 7:16 AM CDT 6:45 PM CDT
Civil Twilight 6:52 AM CDT 7:10 PM CDT
Nautical Twilight 6:23 AM CDT 7:38 PM CDT
Astronomical Twilight 5:55 AM CDT 8:07 PM CDT
Moon 2:36 PM CDT (10/12) 12:41 AM CDT (10/12)
Length of Visible Light 12h 17m
Length of Day
11h 28m
First Quarter, 59% of the Moon is Illuminated
Oct 12
First Quarter
Oct 18
Full
Oct 26
Last Quarter
Nov 3
New
Nov 9
First Quarter

Hourly Weather History & Observations

Time (CDT) Temp. Heat Index Dew Point Humidity Pressure Visibility Wind Dir Wind Speed Gust Speed Precip Events Conditions
12:53 AM 70.0 °F - 64.9 °F 84% 29.94 in 10.0 mi SSE 3.5 mph - N/A   Clear
1:53 AM 70.0 °F - 64.9 °F 84% 29.95 in 10.0 mi SE 4.6 mph - N/A   Clear
2:53 AM 70.0 °F - 66.0 °F 87% 29.95 in 10.0 mi SE 3.5 mph - N/A   Mostly Cloudy
3:53 AM 70.0 °F - 66.0 °F 87% 29.94 in 10.0 mi SE 3.5 mph - N/A   Overcast
4:45 AM 71.6 °F - 66.2 °F 83% 29.96 in 10.0 mi SSE 6.9 mph - N/A   Overcast
4:53 AM 71.1 °F - 68.0 °F 90% 29.96 in 10.0 mi SSE 5.8 mph - N/A   Overcast
5:53 AM 71.1 °F - 68.0 °F 90% 29.97 in 8.0 mi South 5.8 mph - N/A   Overcast
6:53 AM 71.1 °F - 69.1 °F 93% 29.99 in 6.0 mi SSE 3.5 mph - N/A   Overcast
7:53 AM 73.0 °F - 70.0 °F 90% 30.01 in 6.0 mi South 6.9 mph - N/A   Overcast
8:27 AM 73.4 °F - 71.6 °F 94% 30.02 in 7.0 mi SSE 5.8 mph - N/A   Overcast
8:36 AM 73.4 °F - 71.6 °F 94% 30.01 in 8.0 mi SSE 6.9 mph - N/A   Overcast
8:53 AM 73.9 °F - 71.1 °F 91% 30.01 in 8.0 mi South 6.9 mph - N/A   Overcast
9:53 AM 75.9 °F - 71.1 °F 85% 30.02 in 10.0 mi South 5.8 mph - N/A   Overcast
10:32 AM 78.8 °F - 71.6 °F 78% 30.03 in 10.0 mi South 8.1 mph - N/A   Mostly Cloudy
10:53 AM 80.1 °F 83.8 °F 72.0 °F 76% 30.02 in 10.0 mi WSW 9.2 mph - N/A   Overcast
11:53 AM 81.0 °F 85.2 °F 72.0 °F 74% 30.02 in 10.0 mi WSW 5.8 mph - N/A   Overcast
12:42 PM 80.6 °F 85.4 °F 73.4 °F 79% 30.02 in 10.0 mi West 4.6 mph - N/A   Overcast
12:53 PM 82.0 °F 86.7 °F 72.0 °F 71% 30.01 in 10.0 mi Variable 3.5 mph - N/A   Overcast
1:17 PM 80.6 °F 85.4 °F 73.4 °F 79% 30.00 in 6.0 mi WSW 5.8 mph - 0.01 in Rain , Thunderstorm Light Rain
1:25 PM 80.6 °F 85.4 °F 73.4 °F 79% 30.00 in 2.5 mi WSW 4.6 mph - 0.03 in Rain , Thunderstorm Rain
1:44 PM 78.8 °F - 73.4 °F 83% 29.99 in 1.8 mi Calm Calm - 0.09 in Rain , Thunderstorm Light Thunderstorms and Rain
1:47 PM 78.8 °F - 73.4 °F 83% 29.99 in 3.0 mi Calm Calm - 0.09 in Rain , Thunderstorm Light Thunderstorms and Rain
1:53 PM 78.1 °F - 73.9 °F 87% 29.98 in 10.0 mi Calm Calm - 0.09 in Thunderstorm Thunderstorm
2:03 PM 78.8 °F - 73.4 °F 83% 29.99 in 1.8 mi WSW 4.6 mph - 0.05 in Rain , Thunderstorm Thunderstorms and Rain
2:19 PM 73.4 °F - 68.0 °F 83% 29.99 in 2.0 mi South 8.1 mph - 0.16 in Rain , Thunderstorm Light Thunderstorms and Rain
2:28 PM 73.4 °F - 69.8 °F 88% 29.98 in 10.0 mi Calm Calm - 0.16 in Rain , Thunderstorm Light Rain
2:37 PM 73.4 °F - 69.8 °F 88% 29.98 in 10.0 mi SE 4.6 mph - 0.17 in Rain , Thunderstorm Light Rain
2:44 PM 73.4 °F - 69.8 °F 88% 29.98 in 10.0 mi SSE 6.9 mph - 0.17 in Thunderstorm Overcast
2:48 PM 73.4 °F - 69.8 °F 88% 29.97 in 10.0 mi SE 3.5 mph - 0.17 in Thunderstorm Mostly Cloudy
2:53 PM 75.0 °F - 68.0 °F 79% 29.97 in 10.0 mi SE 3.5 mph - 0.17 in Thunderstorm Mostly Cloudy
3:18 PM 73.4 °F - 69.8 °F 88% 29.98 in 10.0 mi SE 6.9 mph - N/A   Clear
3:31 PM 73.4 °F - 69.8 °F 88% 29.98 in 10.0 mi SE 9.2 mph - N/A Thunderstorm Partly Cloudy
3:46 PM 71.6 °F - 69.8 °F 94% 29.98 in 10.0 mi SSE 6.9 mph - N/A   Mostly Cloudy
3:53 PM 72.0 °F - 69.1 °F 91% 29.98 in 10.0 mi East 3.5 mph - N/A   Mostly Cloudy
4:17 PM 71.6 °F - 68.0 °F 88% 29.99 in 10.0 mi East 9.2 mph - N/A Thunderstorm Thunderstorm
4:32 PM 73.4 °F - 68.0 °F 83% 29.99 in 10.0 mi East 6.9 mph - N/A   Mostly Cloudy
4:53 PM 73.0 °F - 69.1 °F 87% 29.99 in 10.0 mi ENE 5.8 mph - N/A Thunderstorm Mostly Cloudy
5:07 PM 73.4 °F - 69.8 °F 88% 30.01 in 10.0 mi East 8.1 mph - N/A   Overcast
5:22 PM 73.4 °F - 69.8 °F 88% 30.02 in 10.0 mi ENE 10.4 mph - N/A   Overcast
5:49 PM 71.6 °F - 69.8 °F 94% 30.02 in 10.0 mi ESE 9.2 mph - 0.00 in Rain Light Rain
5:53 PM 72.0 °F - 69.1 °F 91% 30.02 in 10.0 mi East 6.9 mph - 0.00 in Rain Light Rain
6:13 PM 71.6 °F - 69.8 °F 94% 30.03 in 2.5 mi East 8.1 mph - 0.07 in Rain Rain
6:21 PM 71.6 °F - 69.8 °F 94% 30.03 in 1.2 mi SE 12.7 mph 18.4 mph 0.15 in Rain Heavy Rain
6:27 PM 71.6 °F - 69.8 °F 94% 30.04 in 4.0 mi ESE 6.9 mph 18.4 mph 0.16 in Rain Light Rain
6:43 PM 69.8 °F - 68.0 °F 94% 30.04 in 3.0 mi East 8.1 mph - 0.21 in Rain , Thunderstorm Heavy Rain
6:53 PM 70.0 °F - 68.0 °F 93% 30.04 in 10.0 mi ESE 6.9 mph - 0.22 in Rain , Thunderstorm Light Rain
7:05 PM 69.8 °F - 69.8 °F 100% 30.05 in 6.0 mi East 4.6 mph - 0.02 in Rain Rain
7:53 PM 70.0 °F - 68.0 °F 93% 30.04 in 10.0 mi SSE 6.9 mph - 0.09 in   Scattered Clouds
8:53 PM 69.1 °F - 68.0 °F 96% 30.07 in 10.0 mi Calm Calm - N/A   Clear
9:37 PM 69.8 °F - 68.0 °F 94% 30.10 in 10.0 mi Calm Calm - N/A   Scattered Clouds
9:53 PM 70.0 °F - 68.0 °F 93% 30.09 in 10.0 mi South 5.8 mph - 0.00 in   Scattered Clouds
10:53 PM 70.0 °F - 66.9 °F 90% 30.09 in 10.0 mi Calm Calm - N/A   Clear
11:53 PM 69.1 °F - 66.9 °F 93% 30.07 in 10.0 mi Calm Calm - 0.01 in   Clear